Regional Weather Roundup
Issued by NWS

Home | Current Version | Previous Version | Text Only | Print | Product List | Glossary On
Versions: 1 2 3 4 5 6 7 8 9 10 11 12 13 14 15 16 17 18 19 20 21 22 23 24 25 26 27 28 29 30 31 32 33 34 35 36 37 38 39 40 41 42 43 44 45 46 47 48 49 50
000
ASUS43 KMPX 072310
RWRMN
WEATHER ROUNDUP FOR MINNESOTA
NATIONAL WEATHER SERVICE TWIN CITIES/CHANHASSEN MN
500 PM CST WED DEC 07 2016


NOTE: "FAIR" INDICATES FEW OR NO CLOUDS BELOW 12,000 FEET WITH NO
SIGNIFICANT WEATHER AND/OR OBSTRUCTIONS TO VISIBILITY. N/A MEANS
CURRENT SKY AND/OR WEATHER CONDITIONS ARE NOT AVAILABLE.

MNZ060>063-068>070-080000-
   Twin Cities Metro

CITY           SKY/WX    TMP DP  RH WIND       PRES   REMARKS
TWIN CITIES    FLURRIES  19   9  65 W21G26    30.09R WCI   3
ST PAUL        CLOUDY    20  10  65 W18G26    30.11R WCI   5
CRYSTAL        CLOUDY    18   6  59 W23G31    30.08R WCI   0
BLAINE         MOCLDY    19  10  68 W14G28    30.07R WCI   6
LAKEVILLE      FLURRIES  18  12  79 W17G25    30.10R WCI   2
EDEN PRAIRIE   CLOUDY    19   8  62 W13G30    30.10R WCI   6
SOUTH ST PAUL  FLURRIES  20  11  67 W13G24    30.09R WCI   8
LAKE ELMO      MOCLDY    21  12  68 W17G28    30.08R WCI   7
$$
MNZ001>005-007-008-013>017-022>024-027-028-080000-
   Northwest Minnesota

CITY           SKY/WX    TMP DP  RH WIND       PRES   REMARKS
BEMIDJI        SNOW      17  15  88 W18G25    29.92R VSB 1/2 WCI   1
HALLOCK          N/A     25  21  86 N20G29    30.04R WCI  11
ROSEAU         CLOUDY    25  19  80 NW20      29.95R WCI  11
WARROAD        CLOUDY    23  19  86 NW15G22   29.93R FOG     WCI  10
THIEF RVR FALL LGT SNOW  21  19  92 NW17G23   29.99R FOG     WCI   7
CROOKSTON      LGT SNOW  19  18  93 NW26      30.05R WCI   1
FOSSTON        LGT SNOW  16  14  93 W17G23    29.98R WCI   0
DETROIT LAKES  LGT SNOW  16  12  86 W17G25    30.03R WCI   0
MOORHEAD       MIX PCPN  14  10  85 W25G33    30.11R WCI  -5
PARK RAPIDS    LGT SNOW  16   9  74 W16       29.96R WCI   1
$$
MNZ006-009>011-018-025>026-080000-
   North Central Minnesota

CITY           SKY/WX    TMP DP  RH WIND       PRES   REMARKS
BAUDETTE       LGT SNOW  24  20  84 NW16G28   29.88R FOG     WCI  11
FLAG ISLAND    CLOUDY    25  21  86 NW25      29.91R WCI   9
INTL FALLS     LGT SNOW  22  19  89 NW6       29.83R FOG     WCI  14
WASKISH        LGT SNOW  25  23  93 W12       29.88R WCI  14
BIG FORK       LGT SNOW  19  16  86 W12       29.84R WCI   7
LONGVILLE      LGT SNOW  16  10  79 W8G16     29.93R WCI   5
GRAND RAPIDS   LGT SNOW  18  12  79 W15G22    29.89R FOG     WCI   3
CRANE LAKE     LGT SNOW  23  21  93 N8        29.80R WCI  14
ORR            LGT SNOW  19  16  86 W7        29.77R WCI  10
COOK           LGT SNOW  18  16  93 W12       29.81R WCI   5
$$
MNZ012-019>021-037-080000-
   Northeast Minnesota

CITY           SKY/WX    TMP DP  RH WIND       PRES   REMARKS
DULUTH         LGT SNOW  18  12  77 W22G33    29.85R BLWGSNOWWCI   1
ELY            LGT SNOW  19  16  86 W15G21    29.75R WCI   5
HIBBING        LGT SNOW  16  12  84 W9G21     29.84R FOG     WCI   4
EVELETH        LGT SNOW  18  14  83 SW14      29.83R WCI   4
DULUTH HARBOR  FLURRIES  21  16  79 SW20G26   29.92R WCI   6
TWO HARBORS    FLURRIES  21  14  73 W17G24    29.82R WCI   7
SILVER BAY     FLURRIES  19  16  86 SW7G18    29.80R WCI  10
GRAND MARAIS     N/A     29  24  82 W20G28    29.75R WCI  16
G MARAIS ARPRT FLURRIES  19  16  86 W9        29.67R WCI   9
$$
MNZ029>031-032-039>041-046>048-054>057-064-080000-
   West Central Minnesota

CITY           SKY/WX    TMP DP  RH WIND       PRES   REMARKS
FERGUS FALLS   LGT SNOW  12   9  85 W21G28    30.16R WCI  -6
WHEATON        LGT SNOW  16  10  79 W22G29    30.19R WCI  -2
MORRIS         LGT SNOW  12   9  85 W23G32    30.14R WCI  -7
ALEXANDRIA     LGT SNOW  12   9  87 W21G30    30.08R VSB 1   WCI  -7
ELBOW LAKE     LGT SNOW  12  10  89 NW21G26   30.13R WCI  -7
WADENA         LGT SNOW  12   9  85 W15G23    30.01R WCI  -4
GLENWOOD       LGT SNOW  12  10  92 W22G31    30.10R WCI  -7
APPLETON       CLOUDY    16   7  67 NW18G28   30.19R WCI  -1
BENSON         FLURRIES  12   7  79 NW17G35   30.16R WCI  -5
ORTONVILLE     CLOUDY    12   3  67 W21G29    30.19R WCI  -6
MADISON        CLOUDY    16   7  67 W32       30.21R WCI  -5
WILLMAR        CLOUDY    16   9  73 W21G31    30.15R WCI  -2
$$
MNZ033>034-036-042>043-049>051-058-059-080000-
   Central Minnesota

CITY           SKY/WX    TMP DP  RH WIND       PRES   REMARKS
ST CLOUD       FLURRIES  15   8  73 W17G25    30.07R WCI  -1
PAYNESVILLE    PTCLDY    13   8  77 W18G26    30.11R WCI  -4
AITKIN         LGT SNOW  18   9  68 W7G18     29.94R WCI   8
PINE RIVER     LGT SNOW  16  10  79 W8        29.99R WCI   5
BRAINERD       CLOUDY    15   8  73 W18G24    29.99R WCI  -2
STAPLES        FLURRIES  12   9  85 W18G25    30.01R WCI  -5
LONG PRAIRIE   LGT SNOW  14   9  79 SW14G25   30.05S WCI  -1
LITTLE FALLS   CLOUDY    16   9  73 W14G25    30.04S WCI   1
LITCHFIELD     FLURRIES  16   9  73 W20G31    30.12R WCI  -1
BUFFALO        FLURRIES  17   9  72 W15G25    30.11R WCI   2
MAPLE LAKE     MOCLDY    17   9  73 W18G24    30.10R WCI   0
HUTCHINSON     FLURRIES  18  11  74 W24G31    30.12R WCI   0
$$
MNZ037-044-045-052-053-080000-
   East Central Minnesota

CITY           SKY/WX    TMP DP  RH WIND       PRES   REMARKS
PRINCETON      CLOUDY    18   9  68 W16G23    30.05R WCI   3
MORA           MOCLDY    18  10  73 W15       30.02R WCI   3
CAMBRIDGE      CLOUDY    19   9  63 W14G23    30.03R WCI   6
RUSH CITY      CLOUDY    18   9  68 W16G24    30.03R WCI   3
MOOSE LAKE     FLURRIES  19  10  68 W12G22    29.93R WCI   7
HINCKLEY       CLOUDY    19  10  68 W14G24    29.99R WCI   6
CLOQUET        LGT SNOW  18  10  73 W13G20    29.88R WCI   4
MCGREGOR       CLOUDY    18  12  79 W9G18     29.94R WCI   6
$$
MNZ071>073-080-081-089-090-097-098-080000-
   Southwest Minnesota

CITY           SKY/WX    TMP DP  RH WIND       PRES   REMARKS
MONTEVIDEO     CLOUDY    16   7  67 NW16G31   30.20R WCI   0
GRANITE FALLS  CLOUDY    16   8  70 W26G32    30.21R WCI  -3
CANBY          MOCLDY    14   6  70 NW25G35   30.24R WCI  -6
MARSHALL       PTCLDY    12   3  67 NW31G39   30.20R WCI -10
REDWOOD FALLS  CLOUDY    17   5  59 NW25G36   30.18R WCI  -1
OLIVIA         CLOUDY    18  10  73 W17G33    30.15R WCI   2
PIPESTONE      PTCLDY    14   5  67 NW25G33   30.21R WCI  -5
WINDOM         MOCLDY    16   9  73 W24G33    30.17R WCI  -3
WORTHINGTON    FLURRIES  15   8  73 W25       30.19R WCI  -4
JACKSON        CLEAR     18   9  68 W20G28    30.18R WCI   1
TRACY          PTCLDY    15   8  72 NW20G30   30.21R WCI  -2
SLAYTON        CLEAR     14   7  75 W26G36    30.18R WCI  -6
$$
MNZ065>067-074>077-082>085-091>093-080000-
   South Central Minnesota

CITY           SKY/WX    TMP DP  RH WIND       PRES   REMARKS
MANKATO        FLURRIES  18  10  71 NW22G28   30.15R WCI   1
NEW ULM        CLOUDY    18   7  62 NW24G37   30.17R WCI   0
ST JAMES       CLOUDY    18   9  68 W17G25    30.19R WCI   2
FAIRMONT       CLEAR     19   9  65 NW23G29   30.18R WCI   2
GLENCOE        CLOUDY    19  13  77 W22G29    30.12R WCI   2
FARIBAULT      FLURRIES  19  12  73 W21G26    30.12R WCI   3
OWATONNA       FLURRIES  19  10  68 W20G28    30.11R WCI   4
WASECA         FLURRIES  19  12  73 W21G29    30.14R WCI   3
ALBERT LEA     CLOUDY    23  14  68 W18G26    30.13R WCI   9
$$
MNZ078>079-086>088-094>096-080000-
   Southeast Minnesota

CITY           SKY/WX    TMP DP  RH WIND       PRES   REMARKS
ROCHESTER      FLURRIES  19  12  74 W17       30.09R WCI   4
RED WING       CLOUDY    21  10  63 W13G20    30.08R WCI   9
STANTON        FLURRIES  21  12  69 W15G24    30.10R WCI   7
DODGE CENTER   FLURRIES  18  12  79 W20G28    30.09R WCI   1
WINONA         FLURRIES  21  14  73 NW12G18   30.12R WCI   9
AUSTIN         FLURRIES  19  12  73 W15G30    30.12R WCI   5
PRESTON        CLOUDY    18  12  76 W17G24    30.10R WCI   3
$$
ABBREVIATIONS USED IN REMARKS
   TC - TEMPERATURES IN CELSIUS
  WCI - WIND CHILL INDEX
   HX - HEAT INDEX
  VSB - VISIBILITY
$$




USA.gov is the U.S. government's official web portal to all federal, state and local government web resources and services.